Location: Les Gen�tes
(46.3104°N, 1.5969°E)
Time: 20:45:42
(UTC+00:00)

Cosmos 1340 Rocket - Pass Details

Date: 01 June 2020
Orbit: 530 x 558 km, 81.2° (Epoch: 11 July)

Event Time Altitude Azimuth Distance (km) Brightness Sun altitude
Rises 23:31:38 0° 341° (NNW) 2,742 7.8 -21.3°
Reaches altitude 10° 23:33:54 10° 334° (NNW) 1,846 6.5 -21.4°
Maximum altitude 23:37:41 38° 266° (W) 855 3.7 -21.4°
Enters shadow 23:38:05 37° 251° (WSW) 872 3.6 -21.4°
